[Iaude] MPEC D32: 2024 CO8 [a=2.52,e=0.62,i=7.4,H=26.5]
    mpec at cfa.harvard.edu 
    mpec at cfa.harvard.edu
       
    Sat Feb 17 03:47:45 EST 2024
    
    
  
M.P.E.C. 2024-D32                             Issued 2024 February 17, 08:46 UT
     The Minor Planet Electronic Circulars contain information on unusual
         minor planets, routine data on comets and natural satellites,
         and occasional editorial announcements.  They are published
    on behalf of Division F of the International Astronomical Union by the
          Minor Planet Center, Smithsonian Astrophysical Observatory,
                          Cambridge, MA 02138, U.S.A.
			  
             Prepared using the Tamkin Foundation Computer Network
                              MPC at CFA.HARVARD.EDU
            URL https://www.minorplanetcenter.net/    ISSN 1523-6714
                                    2024 CO8                                    
Observations:
     K24C08O* C2024 02 14.45678810 10 23.151+07 33 19.66         21.15wXED032F51
     K24C08O  C2024 02 14.46952210 10 24.654+07 31 53.16         21.79wXED032F51
     K24C08O  C2024 02 14.48226910 10 26.184+07 30 26.40         21.88wXED032F51
     K24C08O  C2024 02 14.49562010 10 27.776+07 28 55.89         21.81wXED032F51
     K24C08O  C2024 02 15.25183010 12 26.073+06 07 35.85         21.4 GVED032H01
     K24C08O  C2024 02 15.25863710 12 26.833+06 06 54.51         22.1 GVED032H01
     K24C08O  C2024 02 15.27282210 12 28.409+06 05 28.37         21.9 GVED032H01
     K24C08O  C2024 02 15.27654410 12 28.815+06 05 05.58         22.4 GVED032H01
     K24C08O KC2024 02 15.27871310 12 29.426+06 04 54.34         22.34GVED032I52
     K24C08O KC2024 02 15.29002810 12 30.676+06 03 46.37         21.79GVED032I52
     K24C08O KC2024 02 15.29466010 12 31.154+06 03 18.36         21.91GVED032I52
     K24C08O  C2024 02 15.38653010 12 45.508+05 54 20.89         20.08GVED032F51
     K24C08O  C2024 02 15.38734710 12 45.600+05 54 16.86         21.84GVED032F51
     K24C08O KC2024 02 17.30969 10 16 42.09 +03 03 37.3                VED032291
     K24C08O KC2024 02 17.31957 10 16 42.72 +03 02 52.4                VED032291
     K24C08O KC2024 02 17.32949 10 16 43.59 +03 02 04.8          23.0 RVED032291
Observer details:
291 LPL/Spacewatch II.  Observer J. V. Scotti.  1.8-m f/2.7 reflector + CCD.
F51 Pan-STARRS 1, Haleakala.  Observers J. Herman, T. Lowe, P. Minguez, A.
    Schultz, I. Smith.  Measurers K. Chambers, T. de Boer, J. Fairlamb, H.
    Gao, M. Huber, C.-C. Lin, E. Magnier, Y. Ramanjooloo, R. Wainscoat, R.
    Weryk.  1.8-m Ritchey-Chretien + CCD.
H01 Magdalena Ridge Observatory, Socorro.  Observers W. H. Ryan, E. V. Ryan.
    Measurer W. H. Ryan.  2.4-m f/8.9 Ritchey-Chretien + CCD.
I52 Steward Observatory, Mt. Lemmon Station.  Observer J. B. Fazekas.
    Measurers E. C. Beshore, D. Fay, J. B. Fazekas, D. C. Fuls, A. R. Gibbs,
    A. D. Grauer, H. Groeller, J. K. Hogan, R. A. Kowalski, S. M. Larson, G.
    J. Leonard, D. Rankin, R. L. Seaman, F. C. Shelly, K. W. Wierzchos.  1.0-m
    prime focus + CCD.
Orbital elements:
2024 CO8                                                 Earth MOID = 0.0376 AU
Epoch 2024 Mar. 31.0 TT = JDT 2460400.5                 MPC                     
M  19.53869              (2000.0)            P               Q                  
n   0.24618209     Peri.  140.69205     -0.24502935     -0.96648962             
a   2.5213419      Node   323.30730     +0.85411344     -0.17783392             
e   0.6156275      Incl.    7.35959     +0.45874922     -0.18512943             
P   4.00           H   26.53          G   0.15           U   9                  
Residuals in seconds of arc
240214 F51  0.2+  0.2+    240215 H01  0.0   0.0     240215 F51  0.3-  0.3+
240214 F51  0.1-  0.1+    240215 H01  0.0   0.2-    240217 291  1.4+  0.9-
240214 F51  0.0   0.2-    240215 I52  0.2+  0.5-    240217 291  0.8-  0.6+
240214 F51  0.0   0.2-    240215 I52  0.4+  0.2+    240217 291  0.7+  0.4-
240215 H01  0.1-  0.1-    240215 I52  0.0   0.3+
240215 H01  0.1-  0.1-    240215 F51  0.4-  0.6-
Ephemeris:
2024 CO8                 a,e,i = 2.52, 0.62, 7                   q = 0.9691
Date    TT    R. A. (2000) Decl.     Delta      r    Elong.  Phase     V
2024 01 18    23 39 06.4 +41 37 59   0.1008  0.9729    80.9    93.3    24.8
...
2024 02 02    07 08 35.8 +64 11 23   0.04105 1.0119   129.3    48.9    21.5
...
2024 02 10    09 52 52.1 +19 15 23   0.06147 1.0477   173.1     6.5    21.1
...
2024 02 16    10 14 05.6 +04 55 54   0.09358 1.0803   170.9     8.3    22.1
2024 02 17    10 16 06.8 +03 29 08   0.09949 1.0861   170.1     9.0    22.3
2024 02 18    10 17 53.4 +02 12 32   0.1055  1.0921   169.5     9.5    22.5
...
2024 02 24    10 25 12.0 -02 59 29   0.1436  1.1299   167.2    11.2    23.3
...
2024 03 03    10 30 29.3 -06 18 24   0.1993  1.1853   165.4    12.2    24.1
...
2024 03 18    10 37 23.8 -08 13 48   0.3201  1.2999   159.5    15.6    25.5
A. U. Tomatic                (C) Copyright 2024 MPC           M.P.E.C. 2024-D32
    
    
More information about the Iaude
mailing list